Simultaneous Nadir Overpasses (SNOs) Predictions

Prediction of SNOs between AURA and NPP Satellite Orbit:

Table of predicted SNOs for the next 14.0 days since TLE Epoch: 2/8/2019
Index Date (AURA) Time (AURA) Lat,Lon (AURA) SZA (AURA ) Date (NPP) Time (NPP) Lat,Lon (NPP) SZA (NPP ) Distance(km) Time Diff (sec)
1 02/10/2019 11:25:01 -79.69, 87.04 73.16 02/10/2019 11:24:40 -79.70, 87.15 73.16 2.25 21
2 02/10/2019 12:14:22 79.87,-103.98 106.57 02/10/2019 12:15:19 79.87,-103.93 106.52 0.95 57
3 02/13/2019 02:52:45 78.04, 25.63 108.23 02/13/2019 02:51:31 78.17, 25.13 108.34 18.73 74
4 02/13/2019 03:41:30 -79.75,-156.63 74.12 02/13/2019 03:41:32 -79.76,-156.50 74.14 2.63 2
5 02/15/2019 19:08:40 79.50, 149.77 105.38 02/15/2019 19:07:49 79.49, 149.63 105.44 2.95 51
6 02/15/2019 19:58:01 -79.74, -40.87 75.00 02/15/2019 19:58:27 -79.73, -41.02 74.99 3.19 26
7 02/18/2019 11:25:08 79.59, -93.71 104.31 02/18/2019 11:24:40 79.58, -93.81 104.35 2.10 28
8 02/18/2019 12:14:29 -79.83, 75.70 76.06 02/18/2019 12:15:18 -79.82, 75.58 76.07 2.44 49
9 02/21/2019 03:41:35 79.68, 22.81 103.23 02/21/2019 03:41:30 79.67, 22.76 103.24 1.11 5




NCC Satellite Simultaneous Nadir Overpasses (SNOs) Prediction Service
